Location: ??????????
(31.2156°N, 29.9553°E)
Time: 04:44:50
(UTC+00:00)

SeaSat 1 - Pass Details

Date: 03 March 2021
Orbit: 744 x 747 km, 108.0° (Epoch: 14 April)

Event Time Altitude Azimuth Distance (km) Brightness Sun altitude
Rises 16:20:10 0° 29° (NNE) 3,192 5.4 -5.1°
Reaches altitude 10° 16:22:29 10° 35° (NE) 2,266 4.6 -5.6°
Maximum altitude 16:27:18 53° 111° (ESE) 918 2.6 -6.6°
Drops below altitude 10° 16:32:05 10° 188° (S) 2,254 5.1 -7.7°
Sets 16:34:23 0° 193° (SSW) 3,175 5.9 -8.2°
